Weather History for KCSM - November, 2012

Change the Weather History Date:

Saturday, November 10, 2012

  Actual Average Record
Temperature  
Mean Temperature 70 °F -  
Max Temperature 79 °F - - ()
Min Temperature 61 °F - - ()
Cooling Degree Days 5    
Growing Degree Days 20 (Base 50)    
Moisture  
Dew Point 55 °F    
Average Humidity 61    
Maximum Humidity 81    
Minimum Humidity 44    
Precipitation  
Precipitation 0.00 in - - ()
Sea Level Pressure  
Sea Level Pressure 29.71 in    
Wind  
Wind Speed 22 mph (South)    
Max Wind Speed 34 mph    
Max Gust Speed 47 mph    
Visibility 10 miles    
Events      
T = Trace of Precipitation, MM = Missing Value Source: NWS Daily Summary

Daily Weather History Graph

Daily Weather History Graph

Search for Another Location

Airport or City:

Trip Planner

Search our weather history database for the weather conditions in past years. The results will help you decide how hot, cold, wet, or windy it might be!

Date:

Astronomy

Nov. 10, 2012 Rise Set
Actual Time 7:07 AM CST 5:33 PM CST
Civil Twilight 6:40 AM CST 6:00 PM CST
Nautical Twilight 6:10 AM CST 6:30 PM CST
Astronomical Twilight 5:40 AM CST 7:00 PM CST
Moon 3:21 AM CST (11/10) 3:15 PM CST (11/10)
Length of Visible Light 11h 19m
Length of Day
10h 26m
Waning Crescent, 14% of the Moon is Illuminated
Nov 10
Waning Crescent
Nov 13
New
Nov 20
First Quarter
Nov 28
Full
Dec 6
Last Quarter

Hourly Weather History & Observations

Time (CST) Temp. Dew Point Humidity Pressure Visibility Wind Dir Wind Speed Gust Speed Precip Events Conditions
12:53 AM 66.9 °F 54.0 °F 63% 29.81 in 10.0 mi South 18.4 mph - N/A   Clear
1:53 AM 64.0 °F 54.0 °F 70% 29.79 in 10.0 mi South 16.1 mph - N/A   Clear
2:53 AM 64.0 °F 53.1 °F 67% 29.79 in 10.0 mi South 15.0 mph - N/A   Clear
3:53 AM 63.0 °F 53.1 °F 70% 29.79 in 10.0 mi South 16.1 mph - N/A   Clear
4:53 AM 62.1 °F 53.1 °F 72% 29.79 in 10.0 mi South 18.4 mph - N/A   Clear
5:53 AM 61.0 °F 54.0 °F 78% 29.79 in 10.0 mi South 16.1 mph - N/A   Clear
6:53 AM 61.0 °F 54.0 °F 78% 29.80 in 10.0 mi South 18.4 mph - N/A   Clear
7:53 AM 61.0 °F 55.0 °F 81% 29.79 in 10.0 mi SSE 24.2 mph 32.2 mph N/A   Clear
8:53 AM 63.0 °F 55.9 °F 78% 29.78 in 10.0 mi South 27.6 mph 34.5 mph N/A   Clear
9:53 AM 66.9 °F 57.0 °F 70% 29.76 in 10.0 mi South 25.3 mph 35.7 mph N/A   Partly Cloudy
10:53 AM 69.1 °F 57.0 °F 65% 29.75 in 10.0 mi South 29.9 mph 39.1 mph N/A   Partly Cloudy
11:53 AM 73.0 °F 57.0 °F 57% 29.70 in 10.0 mi South 34.5 mph 47.2 mph N/A   Partly Cloudy
12:53 PM 75.0 °F 57.0 °F 53% 29.68 in 10.0 mi South 29.9 mph 36.8 mph N/A   Clear
1:53 PM 78.1 °F 55.9 °F 46% 29.65 in 10.0 mi South 29.9 mph 39.1 mph N/A   Clear
2:53 PM 78.1 °F 55.0 °F 45% 29.61 in 10.0 mi South 31.1 mph 39.1 mph N/A   Clear
3:53 PM 79.0 °F 55.0 °F 44% 29.60 in 10.0 mi South 34.5 mph 42.6 mph N/A   Clear
4:53 PM 75.9 °F 55.0 °F 48% 29.61 in 10.0 mi South 32.2 mph 41.4 mph N/A   Clear
5:53 PM 73.9 °F 54.0 °F 50% 29.63 in 10.0 mi SSE 32.2 mph 38.0 mph N/A   Clear
6:53 PM 72.0 °F 54.0 °F 53% 29.62 in 10.0 mi SSE 29.9 mph 39.1 mph N/A   Clear
7:53 PM 71.1 °F 54.0 °F 55% 29.62 in 10.0 mi SSE 27.6 mph 38.0 mph N/A   Clear
8:53 PM 70.0 °F 53.1 °F 55% 29.63 in 10.0 mi SSE 28.8 mph 36.8 mph N/A   Partly Cloudy
10:53 PM 69.1 °F 54.0 °F 58% 29.66 in 10.0 mi South 21.9 mph 35.7 mph N/A   Clear
11:53 PM 70.0 °F 54.0 °F 57% 29.66 in 10.0 mi SSW 21.9 mph 29.9 mph 0.00 in   Overcast